Wetbulb
69.91 69.02 63.91 60.95 50.25 46.87 41.63 47.23 51.15 51.69 51.80 55.45 58.08 56.83 55.70 57.36 54.29 48.37 63.81 66.99 68.14 68.42 70.42 72.57 73.39 72.99 72.65 72.39 72.25 72.64 72.86 72.89 72.59 72.11 71.87 71.69 71.64 70.20 68.74 67.42 66.73 66.71 67.45 68.64 69.79 70.04 70.95 70.82 70.73
66.92 66.19 61.72 55.61 45.06 40.47 42.80 49.03 49.91 52.07 55.13 58.65 59.23 58.36 57.31 56.08 63.88 63.71 63.83 68.53 68.59 69.36 69.69 71.15 73.49 73.09 72.52 72.33 72.42 72.84 72.91 72.35 71.95 71.89 71.47 71.16 69.32 67.66 66.68 66.29 66.24 65.81 65.65 66.48 67.15 67.55 68.28 68.80 68.96
66.17 65.34 56.33 51.14 45.51 40.79 42.69 50.82 52.54 54.43 57.06 57.59 57.29 59.61 57.98 57.18 64.83 64.45 66.79 68.81 68.71 67.31 69.42 70.22 73.72 73.40 72.95 72.78 72.52 72.52 72.39 71.92 71.33 70.87 70.44 69.49 68.09 66.59 66.12 65.92 65.80 66.12 65.87 65.53 65.76 65.97 66.43 67.10 67.42
64.10 60.05 56.91 49.50 46.19 49.56 47.99 53.13 56.11 55.48 57.14 58.81 58.72 56.27 60.93 64.34 64.87 66.71 68.95 67.94 65.69 65.60 67.59 71.81 73.83 73.40 73.15 73.08 72.99 72.15 71.17 70.51 70.04 69.50 68.94 68.32 67.44 66.62 65.79 65.48 65.76 65.77 66.05 66.40 66.06 66.12 66.12 66.33 67.17
60.53 57.12 49.16 47.71 48.90 52.63 53.29 55.59 55.13 54.07 55.66 56.63 58.92 56.48 58.15 65.79 68.36 68.33 68.41 67.71 66.21 67.90 69.82 72.28 73.81 73.30 73.44 73.08 71.94 70.20 69.34 68.60 67.79 67.10 67.23 67.31 67.01 67.07 66.59 65.92 65.70 65.97 65.94 65.96 66.34 66.75 66.13 66.26 66.91
54.18 56.88 48.11 45.10 48.85 53.19 55.71 57.21 56.33 55.13 56.20 57.87 57.85 56.79 55.27 64.20 66.90 66.28 68.11 67.94 69.50 69.15 70.11 71.21 73.59 73.25 72.93 71.19 69.71 69.02 67.92 67.10 67.12 67.84 68.89 67.70 67.65 67.68 66.83 66.21 65.65 66.01 66.01 65.65 65.76 65.92 65.92 66.43 66.46
53.12 51.67 48.40 47.42 48.83 52.94 55.34 58.41 56.96 57.23 57.64 57.64 60.21 55.43 54.33 56.32 57.28 60.08 63.16 63.35 63.81 67.50 67.77 68.72 69.45 71.29 71.27 70.05 69.20 67.71 66.91 66.61 66.63 66.43 66.58 66.68 66.88 67.07 67.10 66.49 66.06 65.57 65.84 66.00 65.98 65.84 66.12 66.05 65.74
55.86 53.15 48.64 48.51 48.84 49.91 57.21 58.23 58.48 58.00 57.94 62.21 62.77 54.27 51.64 54.69 57.85 59.40 60.09 60.05 60.04 59.92 59.86 60.01 65.49 67.60 66.37 66.01 68.86 66.67 66.32 65.94 66.12 65.52 64.52 63.87 64.20 65.14 66.25 65.37 65.32 65.73 65.21 65.46 65.50 65.33 65.18 64.50 64.67
57.39 49.61 46.81 49.27 50.23 51.65 57.39 56.42 59.81 61.36 59.39 59.44 57.80 59.08 56.31 56.56 58.21 57.89 57.70 57.98 58.46 59.50 58.26 58.81 62.08 66.07 65.71 65.81 66.76 65.09 65.36 64.83 64.26 62.72 63.35 58.62 57.79 60.18 61.64 64.27 64.62 64.83 63.96 63.76 63.56 63.66 63.77 63.33 61.99
53.65 46.97 50.09 54.60 54.78 52.48 56.83 56.63 57.87 58.47 57.55 53.29 52.41 54.95 55.95 56.77 55.89 55.95 55.49 55.09 56.01 57.29 58.13 57.59 59.13 63.16 64.90 67.14 60.60 58.83 59.58 58.30 57.89 57.80 57.39 56.54 56.21 60.91 60.02 61.75 63.29 62.72 61.75 61.35 61.70 61.99 61.61 59.75 57.57
51.90 50.41 52.70 55.91 56.98 56.80 56.57 56.22 59.28 57.10 54.30 53.06 51.47 52.67 54.26 54.61 54.39 54.77 54.91 55.04 55.23 56.75 57.59 57.89 57.21 59.09 61.91 60.53 59.34 58.02 57.84 57.51 58.05 57.29 56.62 55.95 56.29 56.65 56.95 56.47 56.24 56.37 58.38 55.39 56.08 55.99 56.04 56.35 56.77
50.30 53.71 55.68 56.03 57.85 57.50 56.71 58.74 56.99 57.73 57.64 58.27 55.15 55.04 54.83 54.03 53.02 53.25 52.71 53.94 55.07 55.37 56.22 57.07 57.45 56.76 57.54 57.86 57.85 58.00 57.30 57.08 57.54 58.09 56.46 55.38 55.36 55.97 55.89 55.72 55.68 55.24 54.51 54.39 54.37 54.39 55.10 55.70 56.38
51.71 54.11 55.55 57.16 56.70 57.22 59.71 57.76 57.55 57.83 57.65 56.42 55.86 55.66 54.46 53.75 53.41 53.48 53.55 53.74 54.08 54.14 55.76 56.29 57.40 56.99 56.26 56.75 56.39 56.96 57.55 56.42 56.98 57.60 57.01 55.79 55.61 55.29 54.85 55.19 55.20 54.76 54.02 53.67 53.21 53.50 54.10 54.55 54.98
54.75 54.42 54.31 55.05 55.73 57.55 57.70 56.79 57.96 59.09 56.64 55.52 55.15 54.36 54.31 54.28 54.19 53.92 53.56 52.98 53.54 54.60 55.01 55.89 56.31 56.79 56.23 55.72 55.08 56.20 56.51 56.41 56.42 56.78 57.29 56.49 55.58 55.15 53.94 55.01 55.07 54.40 53.94 53.23 53.08 52.73 53.02 53.11 53.67
54.19 51.96 53.66 55.05 56.11 55.95 58.93 55.25 56.53 59.43 56.25 54.56 54.62 54.86 54.80 54.32 55.32 55.13 55.27 54.04 53.55 53.79 54.84 55.61 55.91 56.41 55.92 55.28 54.91 55.76 56.98 56.39 55.57 56.37 57.35 56.86 55.60 55.55 54.17 54.53 54.12 53.69 53.18 52.52 52.68 52.79 52.61 52.07 52.31
52.88 50.91 47.75 52.44 57.28 57.60 57.33 50.55 58.00 57.69 55.05 53.81 54.73 55.06 55.36 55.00 55.74 56.34 56.96 55.83 54.91 53.96 54.25 56.08 58.49 56.46 55.59 55.14 55.60 55.42 56.75 56.05 55.84 56.05 56.92 57.21 56.16 55.78 54.54 54.43 54.37 53.26 52.48 52.16 51.73 51.84 51.27 50.82 50.58
47.70 44.36 47.43 51.40 56.57 56.84 55.00 51.52 56.19 56.78 55.29 54.11 54.54 54.81 55.13 55.07 55.89 56.85 58.17 57.04 55.84 54.31 54.10 54.93 56.16 56.38 56.43 56.59 56.03 55.36 56.27 56.40 56.21 55.89 56.42 57.03 56.64 55.84 54.11 54.09 54.61 53.00 51.89 51.61 51.35 51.23 50.96 50.22 50.22
42.77 45.18 46.84 48.97 53.12 55.80 53.96 54.35 55.95 58.45 55.47 54.88 54.77 55.13 54.64 54.75 55.82 57.41 58.40 58.35 57.07 55.56 54.29 54.39 54.96 55.28 55.76 55.87 55.83 55.78 55.34 56.02 55.99 55.81 56.08 56.69 56.71 56.32 54.94 54.24 54.68 52.73 51.50 51.32 51.24 50.98 51.22 50.58 49.98
47.97 47.74 47.89 49.78 54.16 53.70 53.48 54.28 54.30 57.85 58.10 56.86 55.96 55.46 55.52 55.28 57.14 58.19 58.81 58.74 57.54 56.52 55.44 54.39 53.92 54.72 54.99 54.30 53.99 54.04 54.17 55.08 55.44 55.57 56.41 56.52 56.71 56.44 55.58 54.34 54.25 52.96 51.57 51.08 51.38 50.90 50.23 50.35 50.64
50.37 48.63 48.58 51.19 54.47 52.69 50.69 50.92 53.70 55.97 58.13 59.01 59.28 58.74 56.87 56.48 56.36 58.17 58.74 57.86 57.32 56.29 57.00 55.12 54.66 54.47 54.62 54.19 53.78 53.96 54.19 54.91 55.55 55.96 56.30 56.57 56.66 56.33 55.92 54.93 54.04 52.87 51.29 51.76 51.67 50.46 49.81 49.93 50.25
48.33 48.43 47.80 48.65 52.82 52.71 49.00 46.99 49.84 56.11 58.26 59.60 60.18 61.13 60.48 58.39 56.71 57.56 58.78 58.33 57.68 57.84 58.82 56.41 56.02 54.43 54.45 55.67 55.87 55.57 55.79 55.02 54.92 55.37 55.34 56.12 56.40 56.49 56.10 55.48 54.11 53.27 52.04 51.37 51.48 51.38 50.47 49.29 50.15
45.16 50.33 51.56 51.11 47.42 42.89 47.64 40.61 46.02 52.21 53.71 57.51 58.16 59.25 60.26 59.86 59.54 58.64 58.67 58.18 58.87 59.19 60.15 58.87 57.00 54.64 54.42 55.51 55.45 54.60 54.25 53.82 53.82 54.04 54.70 55.08 56.42 56.22 55.94 55.48 54.55 53.70 52.97 52.15 52.12 53.45 51.36 50.05 49.64
48.55 52.41 51.13 50.12 46.01 43.26 45.61 42.41 46.69 51.63 50.75 52.53 54.49 58.30 58.96 59.26 60.25 59.92 58.79 59.06 60.19 60.67 60.62 60.11 56.86 55.42 54.94 55.71 56.24 54.70 53.80 53.74 54.13 54.70 55.14 54.62 55.18 55.38 55.94 55.49 54.71 53.49 52.96 53.27 52.82 52.95 52.38 51.22 50.31
54.38 50.05 46.78 45.54 43.60 39.19 43.70 43.45 44.99 47.38 49.36 52.19 54.18 55.15 56.76 56.85 57.84 60.67 59.13 59.44 60.14 61.43 60.74 60.46 56.49 55.75 55.64 55.24 55.96 55.07 55.13 54.12 53.74 53.64 53.55 54.23 54.04 54.19 54.70 55.48 54.90 54.31 53.43 53.53 53.51 53.56 52.76 51.96 50.83
49.19 44.33 39.50 39.02 38.01 37.92 44.29 44.76 45.73 49.77 52.51 53.77 54.15 54.85 56.25 56.75 56.98 58.32 57.17 58.51 59.65 59.75 60.89 61.71 58.39 55.45 55.91 55.58 55.38 55.21 54.62 54.11 54.45 53.19 54.29 53.99 53.99 53.86 54.47 54.90 54.57 54.15 54.19 54.17 54.07 53.34 52.56 52.25 51.14
46.92 44.56 40.00 35.03 35.42 37.58 44.09 42.15 46.32 52.42 54.40 54.60 55.97 55.86 56.41 56.11 56.05 57.80 57.61 59.26 59.81 60.28 61.36 62.85 58.85 56.03 55.78 55.55 56.13 56.30 55.60 54.53 54.57 54.57 54.55 54.21 53.93 54.70 55.72 55.43 55.06 54.86 54.80 54.87 54.68 53.29 52.97 53.09 52.06
47.90 44.39 45.86 40.95 39.18 36.98 39.50 44.81 48.84 52.68 53.05 54.80 54.85 55.58 55.19 56.29 56.84 57.34 58.18 59.60 59.82 60.99 62.39 61.13 59.54 56.47 56.05 55.73 56.23 56.61 56.35 55.64 55.81 55.14 54.49 53.55 54.15 54.69 55.25 55.47 55.23 55.42 55.37 55.15 54.68 53.53 53.65 53.49 53.35
48.62 50.29 43.26 40.95 35.42 34.10 38.69 41.22 42.62 48.41 50.46 53.22 53.93 53.78 54.37 56.39 57.74 57.71 58.83 59.33 60.29 61.35 61.53 59.95 58.01 56.23 56.53 56.07 55.98 56.45 56.50 55.91 55.85 55.12 54.78 54.72 54.78 54.82 54.96 55.41 55.47 55.29 55.58 55.66 55.06 54.15 54.43 53.54 53.74
47.75 45.47 44.51 42.41 40.58 36.99 35.71 40.60 46.56 49.13 50.75 51.60 53.05 53.58 54.65 56.51 57.84 58.56 58.55 59.23 59.96 60.63 60.33 57.85 58.12 57.39 56.29 56.31 56.87 56.76 56.17 56.17 55.83 54.82 54.74 54.76 55.27 55.35 55.35 55.79 55.97 55.75 55.90 56.17 55.49 55.22 54.76 54.29 54.15
48.00 45.92 45.07 40.54 38.91 40.30 39.29 41.14 51.39 50.89 51.59 52.24 53.36 54.30 55.27 56.36 57.91 58.71 59.43 58.81 58.97 59.20 58.98 58.13 58.33 57.92 57.30 57.42 57.63 56.27 55.84 55.54 55.27 55.33 55.69 55.39 54.86 55.44 55.30 55.98 56.05 56.29 56.32 56.57 55.72 55.62 55.93 55.11 54.85
MSLP
1013.28 1013.81 1013.80 1013.85 1015.03 1015.98 1017.09 1017.09 1016.46 1016.33 1016.17 1016.00 1015.97 1016.31 1017.00 1017.28 1017.51 1018.15 1017.62 1017.74 1017.83 1018.19 1018.46 1018.53 1018.61 1018.73 1018.77 1018.78 1018.72 1018.65 1018.52 1018.45 1018.45 1018.43 1018.44 1018.36 1018.27 1018.22 1018.10 1017.93 1017.73 1017.52 1017.32 1017.12 1016.95 1016.78 1016.71 1016.54 1016.39
1013.37 1013.86 1014.20 1014.49 1016.01 1017.39 1017.61 1017.13 1016.81 1016.40 1016.27 1016.06 1016.07 1016.45 1016.75 1017.33 1017.41 1017.53 1017.63 1017.83 1017.94 1018.30 1018.55 1018.59 1018.64 1018.74 1018.81 1018.84 1018.77 1018.68 1018.57 1018.53 1018.51 1018.51 1018.55 1018.49 1018.48 1018.40 1018.32 1018.19 1018.05 1017.85 1017.63 1017.41 1017.26 1017.06 1016.82 1016.63 1016.39
1013.39 1013.74 1014.62 1015.70 1017.38 1017.98 1017.77 1017.39 1016.95 1016.65 1016.30 1016.18 1016.31 1016.45 1016.70 1017.20 1017.40 1017.57 1017.63 1017.81 1018.18 1018.50 1018.57 1018.61 1018.58 1018.73 1018.78 1018.79 1018.79 1018.73 1018.79 1018.82 1018.80 1018.69 1018.62 1018.58 1018.57 1018.59 1018.51 1018.39 1018.27 1018.06 1017.77 1017.49 1017.27 1017.03 1016.76 1016.56 1016.37
1013.08 1014.02 1015.44 1016.59 1017.67 1017.67 1017.33 1017.08 1016.83 1016.81 1016.35 1016.12 1016.50 1016.91 1016.83 1017.00 1017.28 1017.55 1017.77 1017.91 1018.38 1018.69 1018.66 1018.72 1018.82 1018.89 1018.83 1018.75 1018.83 1018.93 1018.97 1018.94 1018.88 1018.87 1018.83 1018.73 1018.67 1018.66 1018.58 1018.50 1018.38 1018.18 1018.00 1017.75 1017.40 1017.18 1017.04 1016.72 1016.42
1013.41 1014.53 1016.36 1017.57 1017.85 1017.46 1017.05 1016.81 1016.99 1017.00 1016.93 1016.73 1016.79 1017.30 1017.55 1017.98 1017.79 1017.88 1018.12 1018.19 1018.68 1018.94 1018.84 1018.84 1018.88 1018.90 1018.90 1018.90 1019.08 1019.15 1019.17 1019.15 1019.11 1019.02 1018.86 1018.79 1018.78 1018.70 1018.54 1018.44 1018.39 1018.13 1017.97 1017.80 1017.55 1017.32 1017.20 1017.00 1016.70
1013.94 1015.02 1016.90 1017.82 1017.82 1017.54 1017.22 1016.98 1017.12 1017.36 1017.44 1017.25 1017.38 1017.71 1018.58 1018.69 1018.39 1018.63 1018.63 1018.79 1018.80 1019.01 1019.02 1018.98 1018.88 1018.90 1018.99 1019.11 1019.29 1019.34 1019.41 1019.38 1019.39 1019.24 1018.88 1018.90 1018.89 1018.74 1018.50 1018.39 1018.40 1018.16 1018.04 1017.88 1017.68 1017.49 1017.34 1017.16 1016.87
1014.59 1016.17 1017.68 1017.92 1017.79 1017.39 1017.17 1017.11 1017.31 1017.51 1017.52 1017.56 1017.63 1018.42 1019.04 1019.16 1018.98 1018.76 1018.86 1018.96 1019.12 1019.15 1019.19 1019.21 1019.15 1019.01 1019.08 1019.21 1019.35 1019.49 1019.59 1019.65 1019.61 1019.55 1019.47 1019.41 1019.25 1019.02 1018.72 1018.64 1018.48 1018.33 1018.23 1017.96 1017.77 1017.59 1017.44 1017.22 1017.00
1015.03 1016.53 1017.87 1017.91 1017.84 1017.29 1016.96 1017.02 1017.19 1017.31 1017.23 1017.11 1017.23 1018.14 1018.90 1019.04 1019.13 1019.01 1019.19 1019.37 1019.45 1019.52 1019.63 1019.61 1019.42 1019.39 1019.53 1019.45 1019.44 1019.57 1019.68 1019.79 1019.79 1019.86 1019.84 1019.85 1019.73 1019.40 1019.07 1019.04 1018.87 1018.68 1018.44 1018.24 1018.03 1017.81 1017.57 1017.39 1017.08
1014.88 1016.34 1017.49 1017.49 1017.32 1016.74 1016.68 1016.95 1017.17 1017.19 1017.41 1017.43 1017.59 1017.85 1018.16 1019.06 1019.22 1019.31 1019.68 1019.91 1019.99 1019.99 1019.98 1019.77 1019.53 1019.56 1019.63 1019.68 1019.67 1019.86 1019.98 1020.11 1020.16 1020.16 1020.04 1020.13 1020.12 1019.97 1019.66 1019.24 1019.07 1018.89 1018.80 1018.58 1018.36 1018.06 1017.82 1017.55 1017.33
1014.91 1016.15 1016.12 1016.02 1015.97 1016.18 1016.49 1016.70 1017.02 1017.28 1017.45 1017.80 1018.08 1018.31 1018.66 1019.00 1019.20 1019.47 1019.75 1020.00 1020.15 1020.13 1020.05 1019.89 1019.69 1019.64 1019.68 1019.65 1020.07 1020.33 1020.44 1020.59 1020.59 1020.47 1020.47 1020.39 1020.35 1020.12 1020.03 1019.69 1019.35 1019.20 1019.09 1018.84 1018.57 1018.37 1018.14 1017.89 1017.62
1014.46 1014.94 1015.19 1015.26 1015.39 1015.82 1016.18 1016.53 1016.81 1017.08 1017.59 1017.47 1017.94 1018.57 1018.97 1019.33 1019.60 1019.79 1019.88 1020.00 1020.03 1020.06 1020.06 1019.90 1019.83 1019.78 1019.80 1020.01 1020.22 1020.51 1020.69 1020.88 1020.81 1020.61 1020.64 1020.67 1020.63 1020.55 1020.32 1020.05 1019.93 1019.78 1019.43 1019.19 1018.85 1018.61 1018.44 1018.20 1017.85
1014.42 1014.43 1014.58 1014.87 1015.16 1015.46 1016.01 1016.32 1016.80 1016.95 1016.70 1016.61 1017.52 1018.00 1018.80 1019.43 1019.75 1019.91 1020.08 1020.13 1020.13 1020.05 1020.06 1020.01 1019.91 1019.98 1020.11 1020.20 1020.38 1020.56 1020.77 1021.05 1020.90 1020.77 1020.75 1020.76 1020.76 1020.72 1020.60 1020.46 1020.39 1020.21 1019.93 1019.63 1019.30 1018.97 1018.71 1018.45 1018.04
1014.15 1014.34 1014.43 1014.48 1015.01 1015.45 1015.65 1015.81 1016.35 1016.71 1016.63 1016.52 1017.37 1018.03 1018.53 1019.05 1019.43 1019.85 1020.13 1020.09 1020.09 1020.12 1020.12 1020.12 1020.03 1020.05 1020.16 1020.23 1020.49 1020.74 1020.82 1020.94 1020.83 1020.87 1020.84 1020.81 1020.80 1020.85 1020.77 1020.66 1020.51 1020.35 1020.19 1020.01 1019.68 1019.28 1018.90 1018.53 1018.16
1014.25 1014.48 1014.72 1014.74 1015.19 1015.45 1016.04 1016.49 1016.43 1016.11 1016.58 1017.08 1017.67 1017.95 1018.30 1018.57 1018.94 1019.49 1019.81 1019.77 1019.87 1019.93 1020.04 1020.02 1020.15 1020.24 1020.32 1020.48 1020.57 1020.70 1020.84 1020.74 1020.83 1021.03 1021.13 1021.15 1021.23 1021.24 1021.15 1021.04 1020.91 1020.61 1020.42 1020.16 1019.87 1019.60 1019.20 1018.81 1018.45
1014.41 1014.84 1014.93 1015.16 1015.46 1015.70 1016.00 1016.39 1015.69 1015.52 1016.04 1016.64 1017.23 1017.62 1017.98 1018.31 1018.78 1018.82 1018.82 1019.19 1019.39 1019.65 1019.67 1019.72 1019.93 1020.20 1020.48 1020.72 1020.78 1020.82 1020.78 1020.85 1021.04 1021.18 1021.09 1021.17 1021.18 1021.19 1021.27 1021.19 1021.06 1021.00 1020.63 1020.31 1019.97 1019.59 1019.31 1018.92 1018.57
1014.93 1015.21 1015.66 1015.18 1015.46 1015.67 1016.04 1015.20 1014.88 1015.50 1016.06 1016.56 1016.80 1017.05 1017.41 1017.71 1017.91 1018.18 1018.17 1018.50 1019.06 1019.40 1019.70 1019.74 1019.81 1020.13 1020.51 1020.83 1020.94 1020.97 1021.08 1021.21 1021.32 1021.37 1021.29 1021.18 1021.24 1021.29 1021.19 1021.38 1021.21 1020.85 1020.63 1020.38 1020.08 1019.90 1019.53 1019.25 1018.78
1015.75 1015.82 1015.68 1015.36 1015.40 1015.76 1016.12 1015.02 1014.91 1015.34 1015.85 1016.28 1016.45 1016.56 1016.89 1017.23 1017.50 1017.55 1017.71 1018.09 1018.57 1018.96 1019.55 1020.08 1020.08 1020.31 1020.58 1020.82 1021.09 1021.09 1021.05 1021.18 1021.32 1021.40 1021.36 1021.27 1021.22 1021.17 1021.37 1021.41 1021.15 1021.34 1020.96 1020.57 1020.33 1020.04 1019.95 1019.51 1019.07
1014.97 1015.05 1015.11 1014.98 1014.97 1015.49 1015.94 1014.86 1015.07 1015.48 1015.62 1015.72 1016.00 1016.15 1016.36 1016.48 1016.14 1016.76 1017.26 1017.86 1018.32 1018.85 1019.30 1019.83 1019.97 1020.07 1020.34 1020.64 1021.10 1021.38 1021.43 1021.38 1021.40 1021.50 1021.54 1021.45 1021.36 1021.20 1021.40 1021.25 1021.26 1021.25 1021.07 1020.93 1020.54 1020.36 1020.10 1019.94 1019.54
1013.68 1014.07 1014.14 1014.31 1014.24 1015.20 1015.36 1015.20 1014.94 1015.20 1015.65 1016.03 1016.07 1015.51 1015.42 1015.82 1015.63 1016.08 1016.72 1017.48 1018.25 1018.92 1019.36 1019.59 1019.89 1020.02 1020.31 1020.75 1021.11 1021.62 1021.77 1021.65 1021.56 1021.47 1021.62 1021.47 1021.40 1021.33 1021.43 1021.37 1021.37 1021.47 1021.29 1021.23 1020.93 1020.58 1020.35 1019.92 1019.65
1013.02 1013.58 1013.60 1014.13 1014.41 1014.99 1015.33 1015.08 1015.06 1014.97 1014.73 1015.12 1015.03 1014.87 1015.33 1015.24 1015.51 1015.92 1017.01 1017.30 1017.67 1018.43 1019.26 1019.47 1019.54 1019.83 1020.32 1020.67 1020.88 1021.06 1021.07 1021.13 1021.15 1021.23 1021.28 1021.26 1021.27 1021.34 1021.37 1021.40 1021.32 1021.46 1021.44 1021.27 1021.15 1020.92 1020.72 1020.39 1020.18
1012.59 1013.01 1013.54 1014.24 1014.70 1015.06 1015.32 1015.14 1014.97 1014.74 1014.65 1014.61 1014.52 1014.64 1014.59 1014.62 1014.94 1015.29 1016.48 1017.00 1017.57 1018.69 1019.11 1019.25 1019.65 1019.84 1020.03 1020.48 1020.79 1021.08 1021.28 1021.22 1021.41 1021.27 1021.40 1020.90 1020.78 1021.00 1021.26 1021.26 1021.30 1021.37 1021.44 1021.33 1021.20 1021.04 1020.97 1020.83 1020.41
1012.40 1012.38 1013.25 1014.29 1015.41 1016.05 1016.26 1016.44 1015.17 1014.93 1014.61 1014.58 1014.23 1013.91 1013.68 1013.84 1013.99 1014.23 1015.17 1015.71 1016.98 1018.06 1018.90 1019.59 1020.35 1020.60 1020.23 1020.41 1020.77 1021.13 1021.33 1021.46 1021.40 1021.16 1021.26 1020.89 1020.68 1020.48 1020.78 1021.08 1021.19 1021.32 1021.27 1021.14 1020.99 1020.79 1020.82 1020.81 1020.74
1012.39 1012.65 1013.69 1014.96 1015.96 1016.72 1016.84 1016.93 1015.31 1015.04 1014.59 1014.11 1013.66 1013.45 1013.83 1013.51 1013.31 1013.03 1013.62 1014.63 1016.22 1018.52 1019.80 1020.51 1020.89 1021.08 1020.60 1020.51 1020.92 1021.33 1021.60 1021.59 1021.57 1021.27 1021.36 1021.00 1020.75 1020.59 1020.62 1020.84 1020.94 1021.09 1021.14 1020.93 1020.69 1020.64 1020.60 1020.61 1020.65
1012.62 1013.83 1014.90 1015.89 1016.73 1017.58 1017.80 1017.55 1016.04 1015.13 1014.75 1014.02 1013.55 1013.50 1013.56 1013.35 1012.97 1012.16 1013.53 1015.41 1017.23 1018.28 1018.84 1019.01 1019.66 1020.00 1020.32 1020.49 1020.68 1021.08 1021.22 1021.36 1021.57 1021.56 1021.47 1021.04 1020.85 1020.62 1020.51 1020.56 1020.69 1020.79 1020.76 1020.63 1020.46 1020.36 1020.31 1020.31 1020.26
1012.63 1014.23 1016.13 1017.14 1017.89 1018.59 1017.90 1017.58 1015.74 1014.75 1014.42 1014.29 1013.99 1013.61 1013.13 1012.94 1013.00 1013.33 1014.23 1015.26 1015.98 1016.69 1017.91 1017.77 1018.20 1019.40 1019.52 1019.67 1020.26 1020.50 1020.66 1021.04 1021.24 1021.28 1021.22 1020.99 1020.84 1020.59 1020.22 1020.38 1020.44 1020.40 1020.34 1020.22 1020.16 1020.10 1020.08 1019.99 1020.01
1013.52 1014.65 1016.13 1017.66 1018.88 1018.85 1017.87 1016.96 1014.98 1014.27 1014.17 1014.10 1014.13 1014.02 1013.57 1013.44 1013.95 1014.15 1014.88 1015.58 1016.19 1016.67 1016.59 1016.13 1016.96 1017.98 1018.65 1019.11 1019.76 1020.09 1020.32 1020.46 1020.80 1020.82 1020.81 1020.69 1020.48 1020.17 1019.89 1020.01 1020.01 1019.97 1019.84 1019.67 1019.63 1019.69 1019.54 1019.42 1019.27
1013.61 1014.83 1015.84 1017.39 1018.86 1019.14 1017.93 1016.50 1014.96 1014.12 1014.10 1014.14 1014.25 1014.28 1014.21 1013.91 1014.54 1014.75 1015.17 1015.55 1015.85 1016.13 1015.99 1016.42 1017.33 1017.97 1018.09 1018.59 1019.24 1019.61 1019.78 1020.11 1020.30 1020.38 1020.43 1020.25 1019.99 1019.82 1019.72 1019.67 1019.61 1019.38 1019.31 1019.21 1019.11 1019.11 1018.88 1018.72 1018.49
1013.27 1014.81 1015.99 1017.36 1018.79 1019.07 1018.12 1017.11 1015.69 1014.82 1014.37 1014.48 1014.81 1015.09 1014.96 1014.64 1015.05 1015.25 1015.54 1015.67 1015.79 1015.64 1016.01 1016.67 1017.28 1017.63 1017.72 1018.17 1018.82 1019.03 1019.27 1019.53 1019.75 1020.06 1020.09 1019.92 1019.64 1019.54 1019.44 1019.32 1019.24 1019.04 1018.82 1018.61 1018.54 1018.33 1018.00 1018.01 1017.63
1013.93 1015.03 1016.57 1017.70 1018.74 1019.02 1018.81 1016.83 1015.49 1015.05 1014.89 1014.77 1015.16 1015.47 1015.63 1015.56 1015.69 1015.95 1015.95 1016.16 1016.26 1016.24 1016.65 1017.00 1017.26 1017.46 1017.91 1018.11 1018.22 1018.58 1018.86 1019.03 1019.28 1019.48 1019.45 1019.38 1019.30 1019.08 1019.05 1018.92 1018.74 1018.53 1018.27 1017.99 1017.92 1017.67 1017.38 1017.18 1016.72
1013.50 1014.53 1015.77 1017.60 1018.75 1018.95 1018.60 1016.56 1015.30 1015.17 1015.22 1015.21 1015.25 1015.33 1015.54 1015.80 1015.83 1016.09 1016.06 1016.23 1016.48 1016.62 1016.88 1017.22 1017.23 1017.41 1017.53 1017.86 1017.95 1018.15 1018.44 1018.65 1018.87 1018.91 1018.72 1018.76 1018.75 1018.53 1018.46 1018.32 1018.11 1017.87 1017.61 1017.35 1017.24 1016.95 1016.68 1016.50 1016.20
Wind_Speed
6 3 1 2 6 7 2 4 1 2 2 2 3 5 6 0 0 2 3 5 5 6 4 3 4 3 3 3 4 5 6 7 8 7 8 8 9 10 10 11 11 11 10 11 13 13 13 12 10
4 3 3 2 7 5 4 2 1 1 4 7 7 3 4 3 1 2 4 4 6 5 3 2 4 3 3 3 4 5 7 9 7 7 8 9 9 9 10 12 13 12 11 9 10 11 11 12 12
5 2 4 6 4 4 2 4 4 1 4 1 4 3 3 2 1 4 4 8 7 5 1 1 4 4 4 3 4 9 9 9 8 8 8 8 7 8 8 10 12 13 12 11 10 11 11 12 12
3 3 5 7 3 1 3 5 5 1 3 4 3 5 3 4 4 3 8 8 6 4 3 4 5 5 4 8 10 10 10 10 9 8 6 5 5 5 6 8 9 10 11 11 11 10 9 10 12
3 3 6 5 3 2 1 4 0 1 2 4 3 2 4 5 8 9 7 7 6 3 2 3 5 4 6 10 11 10 11 10 9 8 5 0 3 6 6 6 9 10 10 10 11 10 9 11 11
5 3 6 3 2 3 3 3 3 4 4 4 5 4 3 4 8 6 7 7 5 6 5 4 4 6 10 11 11 10 9 9 9 10 12 6 6 8 9 6 6 8 10 10 11 9 11 12 13
6 5 2 3 2 2 3 2 3 2 3 3 1 3 2 5 4 6 7 7 6 5 5 5 5 5 11 12 11 10 10 10 10 11 12 12 11 11 12 9 9 9 10 10 10 10 12 12 12
5 6 3 2 3 2 4 3 3 2 3 3 5 6 5 4 3 8 8 7 7 6 6 4 3 5 4 5 10 9 10 9 9 11 13 11 11 11 10 12 11 11 9 10 10 11 12 12 12
3 6 3 7 6 5 5 4 2 1 2 1 3 4 6 8 6 7 5 3 4 4 4 4 2 4 4 4 5 8 10 9 8 9 11 8 4 5 8 10 11 12 12 12 13 12 12 13 12
5 4 8 7 5 5 6 5 8 5 4 3 4 7 8 6 4 7 5 5 3 2 1 3 3 3 3 4 5 5 5 3 3 4 5 4 5 4 6 9 12 11 13 13 14 13 12 9 5
2 3 4 4 5 6 7 4 4 7 3 6 12 12 8 4 4 5 4 4 4 3 1 3 4 3 3 4 3 2 2 1 1 5 5 4 4 3 3 3 4 4 10 5 8 7 5 7 5
1 0 6 4 5 7 8 5 2 6 5 8 12 15 9 8 8 7 6 5 4 3 2 2 4 4 4 3 3 3 3 0 2 3 5 4 3 3 4 3 4 4 4 5 5 4 5 6 6
1 2 3 4 8 4 7 7 4 8 2 11 11 11 10 9 9 6 7 6 5 3 3 2 1 2 3 4 3 2 2 2 2 2 3 3 3 3 3 3 3 3 4 4 5 5 5 6 7
3 4 3 2 6 4 4 3 1 4 8 10 11 11 9 9 8 5 7 7 6 6 5 3 2 2 3 3 3 4 3 3 2 1 2 4 3 3 3 3 3 4 4 4 4 5 5 5 6
2 4 4 1 4 1 4 5 13 6 13 14 13 10 9 9 8 11 10 8 8 6 6 5 3 1 2 3 2 3 2 2 2 0 2 3 3 3 3 2 2 3 4 5 5 5 4 5 5
6 5 2 3 7 2 8 13 11 10 14 13 13 11 11 11 12 9 8 8 8 6 7 5 3 3 2 2 1 1 2 1 0 0 1 2 3 3 3 2 3 3 4 4 4 4 5 5 5
6 3 5 6 7 4 6 10 5 11 13 13 13 11 9 8 9 10 9 8 8 7 6 5 4 3 2 1 1 2 3 2 1 0 0 1 2 3 2 2 2 4 4 4 4 2 3 5 6
4 4 4 6 7 6 7 22 3 8 12 13 12 10 8 9 17 11 9 7 7 6 6 5 4 4 2 0 2 1 1 1 2 2 2 3 0 2 2 2 3 3 3 4 5 3 3 2 5
2 3 4 4 4 6 11 13 9 7 11 8 9 13 13 14 8 9 9 8 6 5 6 7 6 5 3 1 2 1 2 1 2 2 4 3 2 0 0 1 2 3 3 3 4 3 4 3 6
3 3 5 1 2 4 0 10 2 5 11 14 13 15 13 14 8 7 6 8 9 8 5 6 7 6 3 2 2 2 2 2 2 2 3 3 3 2 2 1 2 2 3 4 4 4 3 2 5
3 4 1 2 2 2 5 8 5 3 2 7 10 10 10 14 15 11 10 11 7 6 7 7 6 6 5 4 2 2 2 1 1 2 3 3 4 3 3 3 1 2 2 3 3 2 3 3 2
3 3 5 4 4 2 3 5 4 4 7 6 9 12 15 12 12 14 13 15 12 10 5 3 3 4 4 4 2 3 2 2 2 2 2 3 4 5 4 3 3 3 2 3 2 2 0 0 2
3 4 5 4 3 1 5 3 8 5 6 6 9 13 7 10 13 19 17 16 10 10 7 9 5 5 3 3 1 1 1 1 2 1 4 4 3 3 3 4 4 4 3 4 4 3 3 2 1
6 5 7 5 3 5 6 3 7 3 4 8 4 3 7 9 12 14 6 12 14 10 9 8 8 7 4 3 2 4 4 3 2 2 3 2 2 3 4 4 4 4 4 5 4 4 5 4 4
5 6 4 6 7 4 4 2 9 6 5 4 9 12 11 10 11 5 11 16 16 17 14 12 12 8 7 6 5 7 5 5 5 5 4 4 2 3 5 4 5 4 5 5 5 5 4 4 4
3 4 6 1 1 5 4 4 6 4 2 4 6 8 9 10 7 6 10 12 12 15 17 17 13 11 8 6 7 5 5 3 4 5 4 4 3 4 3 5 5 7 6 7 5 4 5 5 5
1 2 3 7 3 2 3 7 7 2 1 5 8 9 10 13 12 6 10 11 14 15 17 6 7 6 7 8 6 6 6 5 5 6 5 4 4 4 5 6 6 6 6 7 6 6 8 6 7
2 4 3 4 0 3 5 5 7 5 6 3 7 9 11 12 12 9 7 11 11 14 4 7 7 7 8 7 6 6 6 6 5 4 6 6 6 4 5 6 6 7 7 7 7 7 8 7 8
1 1 6 5 4 5 2 8 5 5 7 6 6 7 8 9 9 6 4 3 5 3 4 6 6 6 6 6 6 7 6 6 5 5 6 6 5 7 7 7 7 8 8 8 7 9 10 10 10
1 3 5 6 4 2 4 9 3 3 5 3 5 6 6 6 5 4 4 5 5 5 4 5 6 6 8 6 6 6 5 5 5 6 8 5 8 7 8 8 8 9 10 9 9 11 10 10 12
Wind_Direction
97 94 317 37 55 64 57 11 64 45 60 321 63 111 132 19 99 180 323 140 89 104 132 192 169 152 126 92 76 67 62 51 46 45 61 65 62 56 47 32 14 1 356 353 349 353 354 355 354
120 103 2 75 77 54 311 345 35 310 138 107 86 105 69 55 109 102 76 102 92 103 127 169 164 141 105 91 82 66 54 51 44 52 66 74 71 61 49 34 26 19 7 354 350 347 347 344 343
132 200 67 79 98 125 117 40 31 254 181 257 105 57 111 144 23 139 131 115 88 70 149 204 161 160 145 115 67 64 55 50 52 67 73 80 76 62 49 37 31 30 28 29 17 5 356 349 340
110 24 36 68 83 227 140 150 165 109 333 63 103 73 71 11 129 107 112 100 86 48 140 207 164 161 137 95 86 78 78 68 59 57 62 67 59 49 35 25 21 20 17 9 8 3 359 351 353
49 68 65 83 14 4 77 126 183 332 318 22 63 87 53 33 78 84 96 100 104 90 95 135 144 118 98 100 90 89 78 62 46 35 4 159 39 12 359 3 4 6 9 4 8 9 11 4 355
41 93 55 70 50 7 32 57 48 35 27 357 55 61 44 6 62 56 82 86 79 89 71 53 67 101 103 100 96 81 64 55 42 36 51 71 28 9 360 354 0 358 13 10 6 8 4 2 359
95 66 73 97 78 45 146 74 71 62 17 0 4 68 43 14 41 85 87 76 68 65 59 37 37 109 116 113 102 84 67 51 47 54 53 50 46 38 40 48 35 19 11 9 360 5 5 2 1
100 90 69 6 186 179 148 110 141 161 191 236 162 171 192 182 110 82 70 69 63 51 47 40 58 101 104 110 107 89 74 62 62 56 47 42 36 37 38 39 23 21 17 21 18 14 9 10 7
116 69 153 193 170 201 174 137 178 284 116 112 6 151 138 133 116 95 87 65 52 51 32 25 98 132 129 117 108 70 65 60 59 50 42 37 20 13 24 34 32 39 26 22 16 10 5 7 6
87 103 213 182 182 183 162 146 168 153 153 42 62 79 116 133 127 138 157 159 140 126 49 50 72 136 151 112 94 80 71 47 36 55 41 31 30 24 36 30 44 33 26 17 14 8 6 3 352
100 171 164 216 167 143 145 164 145 141 228 199 169 158 159 154 167 165 186 193 178 163 141 74 79 83 126 116 122 93 75 39 5 51 43 33 33 24 11 27 26 11 14 11 4 0 0 348 346
334 276 163 156 189 137 156 137 227 180 232 158 169 160 155 170 184 191 199 204 210 172 121 77 83 88 87 118 134 129 102 51 47 48 43 37 32 24 21 27 19 8 360 359 357 352 343 346 338
59 345 185 164 140 120 139 177 186 212 148 128 140 163 174 184 190 194 200 187 183 185 194 163 106 107 108 108 116 142 148 165 87 59 50 52 52 44 16 32 24 8 355 1 351 349 345 344 340
108 54 4 78 147 148 133 3 135 209 147 141 160 186 191 195 189 184 195 186 194 205 208 186 169 159 131 144 154 178 185 154 92 56 54 44 48 45 22 15 6 357 357 349 349 346 341 337 334
59 70 4 55 159 168 109 266 230 189 167 164 183 200 201 211 192 206 195 190 189 200 204 191 186 181 109 129 146 170 187 128 118 63 68 55 57 59 27 16 7 347 346 353 352 354 350 348 343
60 38 34 256 145 204 123 263 221 174 166 185 194 200 209 210 213 213 202 189 189 180 189 181 166 162 194 145 109 156 184 141 115 357 57 67 72 73 63 12 353 348 352 358 359 354 340 353 358
16 204 209 329 200 135 187 277 319 167 182 190 203 214 216 217 224 219 207 191 182 185 167 197 194 195 223 331 154 235 199 193 207 249 263 269 102 101 69 7 347 347 357 7 354 341 353 349 355
208 221 223 216 214 190 213 254 335 194 200 202 206 225 228 217 228 209 201 192 185 173 161 190 194 196 197 40 65 357 351 214 231 252 265 268 296 99 45 16 354 358 357 356 357 355 340 345 349
189 197 243 225 212 153 231 267 251 229 221 217 217 224 229 238 239 198 193 183 174 165 174 193 183 208 159 127 100 93 238 238 262 231 259 253 261 271 16 7 352 349 1 339 348 340 356 347 356
147 254 268 114 11 156 71 268 332 268 222 210 223 232 234 243 228 202 202 194 178 171 200 212 208 187 187 145 170 174 180 207 192 206 233 240 239 257 248 276 333 323 331 342 353 17 338 344 18
216 200 108 59 45 89 348 313 351 327 245 212 243 246 241 234 238 217 189 204 185 155 204 220 210 201 193 181 114 84 37 39 332 224 260 238 214 227 243 251 260 281 296 313 321 348 24 350 333
332 241 122 117 61 277 13 279 313 306 296 247 243 239 244 245 240 230 199 198 178 173 185 265 271 239 203 179 172 194 214 204 228 200 250 269 233 214 214 242 250 262 269 281 287 303 310 49 355
289 60 92 96 130 104 354 58 275 338 315 282 255 256 267 252 242 237 208 195 164 99 48 4 321 280 255 193 223 212 268 303 312 321 292 288 260 226 233 234 246 259 265 271 271 287 266 222 216
119 55 39 53 70 24 333 86 292 297 288 308 298 272 252 270 278 261 147 113 118 122 146 186 244 233 208 189 203 209 232 241 257 271 272 282 258 257 252 248 242 253 261 265 272 264 258 256 242
85 65 352 3 8 239 299 25 244 288 310 264 293 315 323 323 334 23 124 138 154 154 171 208 202 204 190 195 205 216 219 227 245 244 244 250 251 250 249 239 250 248 251 261 261 268 267 257 254
41 138 147 225 252 270 318 245 261 229 303 308 301 301 312 326 359 34 134 151 152 163 187 210 170 182 179 181 215 213 209 206 230 242 244 237 231 243 260 252 248 248 251 257 253 257 262 247 247
189 42 148 105 24 42 261 296 320 272 281 352 337 334 324 339 12 7 142 151 165 178 210 181 150 178 179 182 203 210 216 214 233 247 241 245 249 256 257 253 259 253 258 259 259 255 263 251 260
132 145 36 13 156 286 292 284 245 310 292 304 327 321 330 337 9 16 143 166 182 196 176 117 156 185 200 184 198 214 216 219 227 250 255 253 264 253 261 262 256 264 265 263 256 259 259 255 264
78 343 58 115 123 172 274 275 225 259 278 216 264 306 322 339 353 23 96 164 201 232 131 133 159 188 218 203 198 212 221 229 227 238 249 251 266 259 260 261 264 260 259 259 257 260 264 259 262
141 177 131 120 243 159 149 272 281 279 317 217 277 301 320 325 338 356 109 153 187 204 164 150 174 203 222 209 203 212 229 232 242 250 257 245 257 266 259 262 261 263 264 265 260 268 273 270 279